Weather Service Report


466 
ASUS41 KGYX 251910
RWRGYX
WEATHER ROUNDUP FOR MAINE AND NEW HAMPSHIRE
NATIONAL WEATHER SERVICE GRAY ME
300 PM EDT SAT MAR 25 2017

MEZ002-005-006-010-012-015-018-020-021-024-026-027-029-252000-
MAINE
  
CITY           SKY/WX    TMP DP  RH WIND       PRES   REMARKS
PORTLAND       CLOUDY    40  30  67 W8        30.29R                  
SANFORD        LGT RAIN  37  33  85 NW6       30.28R                  
BAR HARBOR     CLOUDY    41  27  57 NW7       30.21F                  
WISCASSET      CLOUDY    43  29  57 CALM      30.26S                  
ROCKLAND       CLOUDY    39  30  70 VRB3      30.24R                  
FRYEBURG       CLOUDY    39  31  72 W6        30.26S                  
LEWISTONAUBURN CLOUDY    42  26  53 NW8       30.25R                  
AUGUSTA        CLOUDY    41  24  51 N7        30.24R                  
WATERVILLE     CLOUDY    42  24  49 NW9       30.22R                  
BANGOR         CLOUDY    41  23  48 NW7       30.22R                  
GREENVILLE       N/A     37  15  40 NW10G21   30.16R                  
MILLINOCKET    CLOUDY    40   6  24 NW8       30.20S                  
HOULTON        CLOUDY    37  10  32 N13G22    30.17S                  
PRESQUE ISLE   CLOUDY    32   3  29 N18       30.22S                  
FRENCHVILLE    SUNNY     28  -6  22 NW17G28   30.21S WCI  16          
CARIBOU        SUNNY     32   3  29 NW13G25   30.20F                  
$$

NHZ002-005-008-009-011-012-014-252000-
NEW HAMPSHIRE
  
CITY           SKY/WX    TMP DP  RH WIND       PRES   REMARKS
PORTSMOUTH     LGT SNOW  34  33  94 SW6       30.27S FOG              
ROCHESTER      MIX PCPN  36  33  89 CALM      30.27R FOG              
NASHUA         LGT SNOW  34  34 100 CALM      30.32R FOG              
MANCHESTER     LGT SNOW  33  31  92 S5        30.29R VSB 3/4          
CONCORD        LGT SNOW  34  32  92 CALM      30.28F VSB 1            
PLYMOUTH       FAIR      39  31  73 W10       30.27F                  
BERLIN         CLOUDY    37  21  52 N9        30.25R                  
WHITEFIELD     CLOUDY    35  27  72 CALM      30.27R                  
JAFFREY        LGT SNOW  34  33  96 CALM      30.27S VSB 3/4          
KEENE          LGT SNOW  34  34 100 CALM      30.28F FOG              
LEBANON        CLOUDY    36  34  92 CALM      30.30F                  
MT WASHINGTON  PTSUNNY   18   9  68 NW32        N/A  WCI  -3          
$$

VTZ005-007-008-252000-
VERMONT
  
CITY           SKY/WX    TMP DP  RH WIND       PRES   REMARKS
ST JOHNSBURY     N/A     36  27  69 MISG      30.29R                  
MONTPELIER     CLOUDY    34  30  85 NW6       30.32S                  
BURLINGTON     CLOUDY    34  27  75 NW12      30.36S                  
$$

MAZ007-012-024-CTZ003-RIZ002-NYZ038-NYZ072-252000-
SOUTHERN NEW ENGLAND AND NY
  
CITY           SKY/WX    TMP DP  RH WIND       PRES   REMARKS
BOSTON         LGT RAIN  37  36  96 N8        30.31R FOG              
WORCESTER      CLOUDY    34  31  88 N8        30.28R                  
NANTUCKET      CLOUDY    44  34  67 N18       30.22R                  
PROVIDENCE     LGT RAIN  41  37  86 N16       30.28R FOG              
HARTFORD       DRIZZLE   38  37  97 N13       30.30R FOG              
ALBANY         LGT RAIN  35  31  85 N7        30.32S FOG              
NEW YORK CITY  PTSUNNY   56  41  57 NE10      30.18F                  
$$

ANZ081-ANZ082-ANZ150-NHZ014-MEZ023>029-252000-
COASTAL MARINE OBSERVATIONS
  
STATION/POSITION TIME  TEMP    WIND        PRES    WAVE
                       AIR SEA DIR/SP/G            HT/PER
                 (UTC) (F)     (DEG/KT/KT) (MB)    (FT/S)
MOUNT DESERT ROC 1900   38                 1023.4S
MATINICUS ROCK   1800   38     310/  3/  4 1023.3R
ISLE OF SHOALS   1800   33     350/  3/  4 1025.4S
JEFFREYS LEDGE   1806      41                N/A     2/ 4
CASHES LEDGE BUO 1850   39 40              1025.0R   3/ 5
GEORGES BANK BUO 1750   40 41              1021.0    8/ 9
$$

.............KEY..............
   WCI - WIND CHILL
   TC  - TEMPERATURE IN CELSIUS
   VSB - VISIBILITY IN MILES
   HX  - HEAT INDEX
   FAIR- INDICATES FEW OR NO CLOUDS BELOW 12,000 FT, WITH NO 
         SIGNIFICANT WEATHER AND/OR OBSTRUCTIONS TO VISIBILITY.


  

Return to Home page


Western Regional Climate Center, wrcc@dri.edu